Dewpoint
58 57 58 58 58 58 58 59 59 59 59 59 58 58 58 58 59 59 58 59 58 58 58 58 60 60 60 59 59 56 52 31 29 33 30 29 41 53 53 56 57 58 59 53 50 43 36 31 26 27 25 22 25 26 24 44 46 45 41 39 37 38 36 30 26 29 20 21 27 32 29 30 30 28 28 30 34 36 37 30 27 34 34 35 35 41 41 39
57 58 58 58 58 59 59 59 58 59 59 59 59 59 59 59 59 59 59 58 58 58 59 59 59 60 59 58 59 57 38 28 28 29 25 39 55 54 56 58 56 57 56 44 30 38 36 27 22 25 22 23 33 23 36 38 44 42 38 39 38 34 35 23 16 17 19 21 27 31 29 30 30 26 26 30 31 36 36 32 27 33 34 36 38 41 40 39
58 58 58 58 58 58 58 59 58 59 59 59 59 59 59 59 59 58 58 58 59 59 59 59 60 60 59 58 59 56 37 31 26 23 24 54 55 56 59 58 56 58 51 36 38 34 30 23 22 19 20 20 24 22 33 34 42 42 38 35 37 34 20 16 16 17 19 20 26 28 28 28 28 28 26 29 31 36 36 34 26 30 33 35 36 39 39 40
58 58 58 58 58 58 58 58 59 59 59 59 59 59 59 59 58 58 58 59 59 59 59 60 60 59 59 58 59 48 32 25 20 21 25 51 53 56 59 58 56 57 53 50 44 38 34 30 24 18 22 22 22 25 34 35 39 36 38 35 35 23 16 16 17 16 16 17 25 27 27 28 28 28 28 29 32 34 35 35 29 29 32 35 36 37 39 39
57 57 57 58 58 58 58 58 58 59 59 59 59 59 59 59 59 59 59 59 59 59 59 59 60 60 58 59 57 42 25 14 20 23 24 51 56 56 57 58 57 52 53 49 34 35 36 31 19 21 22 20 28 28 34 35 35 29 36 36 24 16 16 18 17 17 16 17 17 25 26 27 28 27 27 31 28 26 31 34 32 30 32 36 36 36 38 39
57 58 58 58 58 58 58 58 59 59 59 59 59 59 59 59 58 59 59 59 59 59 60 60 59 58 59 57 40 34 22 10 27 22 43 52 55 55 54 58 56 47 39 31 30 29 25 20 19 20 20 19 21 21 23 29 27 27 19 14 14 15 16 16 18 17 16 16 19 22 24 26 27 26 26 30 28 27 30 29 33 30 34 36 36 36 37 39
57 58 58 58 58 58 58 58 59 59 59 59 59 58 58 58 58 58 58 59 59 59 60 60 60 59 57 52 40 29 21 25 23 23 46 52 52 51 53 58 53 42 35 28 27 25 18 15 15 20 20 23 22 21 21 21 22 27 26 14 14 16 16 16 16 17 15 16 18 21 24 25 26 24 24 28 30 29 25 24 28 30 35 36 35 36 38 39
57 58 57 57 57 57 58 58 58 58 58 59 59 58 58 58 58 58 58 59 59 59 59 59 59 58 54 37 24 26 27 21 23 27 43 49 34 30 45 45 42 35 27 27 26 22 16 13 11 18 16 14 21 22 27 19 25 24 21 15 15 15 16 16 15 15 16 16 17 18 19 19 23 23 18 21 26 25 23 29 31 31 35 35 36 36 37 38
57 57 57 57 57 58 58 58 58 58 58 58 58 58 58 58 58 58 58 58 58 59 59 59 58 58 54 35 28 22 24 26 23 23 27 24 23 23 25 20 29 24 23 26 26 23 17 14 16 12 18 15 21 26 26 22 21 23 21 15 15 15 15 15 16 16 16 17 17 17 16 17 17 18 16 17 18 21 24 31 31 33 34 35 35 36 37 38
57 57 57 58 58 58 58 58 58 58 58 58 58 58 58 58 58 58 58 58 59 59 59 58 56 57 40 33 31 23 28 24 22 23 24 24 24 23 23 22 26 23 21 20 23 17 14 12 17 18 16 20 23 23 25 26 23 23 21 17 14 14 15 16 15 15 16 16 17 16 16 16 16 16 14 19 19 22 28 31 32 33 33 34 35 36 37 38
57 57 57 57 58 58 58 58 58 58 58 58 59 58 58 58 58 58 58 59 59 59 59 58 57 48 34 30 25 22 25 23 24 24 24 25 24 23 22 22 22 20 21 20 21 21 20 17 19 20 24 17 23 20 24 24 23 16 17 18 17 15 15 15 15 15 16 15 16 16 14 15 15 18 15 15 20 24 27 29 32 32 33 34 35 36 37 38
57 55 56 56 58 58 58 58 58 58 58 58 58 58 58 58 58 58 58 59 59 60 59 59 58 42 31 26 26 23 23 23 27 24 24 25 23 23 23 24 21 20 20 19 20 20 22 22 24 25 16 21 18 21 20 22 16 16 19 15 19 17 14 14 14 15 16 14 16 15 12 12 16 14 15 17 19 22 26 27 29 32 32 33 34 35 36 37
57 55 55 57 58 58 58 58 58 58 58 58 58 58 58 58 58 58 59 59 60 60 60 59 54 45 37 30 20 20 22 22 27 22 22 25 22 23 22 22 20 20 20 19 19 20 27 26 24 21 28 23 24 16 23 18 16 19 17 16 16 21 17 18 15 16 15 15 17 14 9 13 12 14 14 18 19 20 20 24 25 29 31 32 32 33 35 36
56 55 57 57 57 58 58 59 59 58 58 58 58 58 58 58 58 59 59 58 60 60 60 58 44 36 28 22 23 22 22 30 21 19 20 25 21 20 21 21 21 20 23 19 19 22 26 26 22 25 33 23 22 28 17 18 19 13 19 18 14 15 16 19 15 15 14 16 16 15 10 12 12 13 14 17 18 18 18 19 21 24 26 29 31 32 33 35
56 56 57 57 58 58 59 59 58 58 58 58 58 58 58 58 58 59 59 59 60 60 59 49 40 36 24 21 21 23 47 22 18 19 20 23 21 18 19 21 21 20 19 19 18 20 24 25 23 21 21 26 26 21 19 21 21 19 14 14 19 15 18 20 22 14 13 14 17 16 12 12 12 13 14 16 17 18 17 17 18 20 23 25 27 30 31 33
56 57 57 57 57 57 58 58 58 58 58 58 58 59 58 59 59 59 60 55 59 58 49 42 42 33 23 18 17 37 20 18 17 20 21 24 22 19 21 21 21 18 18 18 20 25 22 23 20 24 21 18 24 24 21 20 19 22 16 12 13 16 17 17 18 15 15 15 15 15 14 13 13 14 14 15 16 16 16 16 17 18 20 22 24 26 29 31
56 57 57 57 57 57 57 56 56 57 57 58 58 57 58 58 58 58 58 56 54 50 38 33 39 36 24 20 20 17 17 18 20 20 19 22 22 22 22 19 18 17 16 18 20 19 19 18 24 23 26 17 24 23 13 15 14 18 20 14 19 14 17 16 20 19 17 15 14 15 14 13 13 14 13 14 15 15 15 15 16 17 18 20 21 23 26 28
56 56 57 57 56 56 56 55 55 56 56 56 54 54 49 55 54 52 50 47 46 44 43 41 33 22 21 19 13 13 18 18 19 19 20 19 23 22 21 20 19 18 18 18 16 16 18 17 25 20 23 24 24 17 12 9 14 16 17 16 18 19 18 17 16 20 15 19 15 14 14 13 13 14 14 13 14 14 15 15 15 15 16 18 20 21 22 24
56 56 57 56 57 56 55 55 55 54 54 55 54 55 55 52 46 34 36 38 27 24 23 27 26 16 14 20 20 18 18 18 20 15 12 17 21 24 23 22 19 16 18 17 18 15 21 24 24 19 15 19 18 22 17 18 21 20 20 18 18 16 16 15 18 23 17 16 17 16 14 14 15 16 16 16 13 13 13 14 14 14 15 16 18 20 22 23
56 56 56 57 57 55 55 56 55 54 53 44 46 44 42 36 36 26 32 32 31 31 28 27 28 26 18 16 16 18 20 20 16 15 15 18 20 20 18 19 21 19 20 17 23 23 27 14 12 12 18 22 21 23 22 22 22 21 21 19 19 19 19 20 22 22 22 19 18 17 17 17 17 17 16 16 16 13 13 13 13 14 13 14 16 18 21 22
56 55 56 56 56 56 55 55 55 54 54 46 44 39 32 32 27 25 20 24 26 33 27 26 24 14 14 15 19 19 17 18 16 14 14 21 22 16 20 18 19 17 18 24 20 27 21 12 14 21 22 24 19 19 22 20 23 20 21 20 19 19 15 18 19 23 24 18 18 20 18 15 13 9 5 1 13 13 14 13 13 13 13 13 14 16 19 21
55 55 55 56 57 56 54 55 54 54 53 46 40 36 35 37 33 32 23 15 21 29 30 26 23 17 17 19 20 21 17 9 9 12 14 18 16 7 14 17 17 14 21 24 18 20 17 11 18 23 23 19 19 20 21 20 20 20 18 17 14 16 19 17 21 22 23 18 16 15 8 2 -0 1 3 6 5 7 9 12 12 13 13 13 13 15 17 19
55 55 55 56 56 57 53 53 53 50 40 42 39 42 42 45 46 45 31 22 19 29 28 26 20 16 17 16 18 22 12 9 7 9 15 19 16 20 21 11 19 18 21 21 13 13 8 17 22 22 18 17 18 20 18 18 20 18 17 14 12 17 10 10 12 17 17 14 11 9 8 7 6 6 7 9 11 12 13 13 14 14 12 13 13 14 15 17
54 54 55 55 55 56 53 51 51 40 42 41 43 42 44 45 45 40 38 29 26 25 29 26 21 17 16 13 17 16 10 12 9 7 17 18 18 21 19 21 20 18 16 20 17 11 9 15 16 18 20 16 15 18 16 15 12 17 19 15 13 13 11 8 7 13 16 13 18 14 4 -3 -2 1 2 1 13 17 16 16 15 15 16 15 16 16 16 15
54 54 55 55 55 55 52 46 33 28 41 38 38 40 43 44 45 43 23 19 22 27 30 30 23 18 17 20 22 21 20 16 14 13 21 19 22 17 14 22 20 14 18 22 20 17 14 20 18 16 17 16 16 14 16 14 10 8 15 15 15 13 12 12 13 3 -15 -11 13 4 -8 -3 -1 3 2 0 2 3 6 9 10 13 13 16 15 15 16 18
55 54 55 55 55 54 50 32 26 38 34 34 40 43 44 44 42 40 23 16 8 23 30 25 22 23 19 14 17 25 23 24 19 15 28 18 29 21 25 17 20 13 20 18 11 14 15 13 16 17 18 18 17 13 17 13 8 -3 3 19 15 12 12 12 11 -3 -10 -19 -15 8 -10 -4 -3 -4 -3 1 6 6 7 8 8 10 13 14 16 15 15 15
54 55 55 56 55 52 26 26 29 31 27 32 45 45 44 44 44 35 19 16 11 22 26 33 19 21 27 21 22 24 0 6 21 20 16 23 23 31 23 20 23 22 24 21 9 2 10 9 12 15 13 14 13 11 15 11 5 5 10 18 13 8 4 7 10 -4 -5 11 14 14 0 -5 -1 -3 3 9 5 5 4 4 7 9 10 13 15 16 16 16
54 54 54 55 54 48 30 37 39 32 28 41 44 44 44 45 41 31 18 -6 -7 26 25 25 26 30 24 25 17 15 10 19 11 22 19 22 22 18 26 23 18 20 16 8 -10 14 10 10 12 12 15 15 10 9 14 11 2 7 14 18 12 11 8 14 10 10 13 4 3 5 14 1 2 4 9 7 1 -0 1 1 4 9 11 11 15 17 17 18
54 55 55 54 54 52 44 43 39 36 43 43 44 44 46 40 31 18 16 -3 13 26 34 23 29 28 30 30 23 26 21 23 9 18 26 23 19 20 21 21 23 20 21 10 3 11 16 13 16 13 12 6 13 15 15 10 8 8 18 20 19 18 18 15 11 9 7 0 -1 2 9 -5 1 3 -1 -4 1 -1 2 3 5 8 12 13 15 16 18 19
54 53 54 52 44 39 40 43 46 46 45 44 45 44 42 34 26 22 -4 -5 24 7 29 28 23 23 26 22 22 27 19 21 19 24 26 20 21 14 21 28 23 21 17 23 18 17 18 28 25 18 13 8 15 15 18 13 9 18 18 12 10 13 18 16 14 7 4 -4 3 3 9 0 -1 -0 -4 -7 -0 6 5 6 8 10 10 12 14 16 19 20
53 54 52 48 34 36 35 31 37 45 45 44 45 36 33 25 17 9 -7 6 16 19 24 24 24 28 21 14 10 20 21 23 24 19 14 24 25 26 24 20 22 17 17 18 13 19 18 19 10 16 23 17 14 14 19 18 18 11 7 4 -4 0 2 8 6 6 -3 -3 3 5 9 5 -4 0 -2 1 5 10 9 3 1 4 5 7 8 12 16 19
54 52 54 47 45 45 30 31 40 45 44 44 39 32 25 10 19 -6 -10 22 8 18 15 17 26 23 22 23 18 21 17 17 23 16 7 10 10 17 17 8 7 -10 6 8 1 13 10 16 16 18 26 12 12 2 -2 19 16 9 5 5 -11 -7 -11 -18 -2 -8 -8 -3 0 -3 6 -2 1 -0 -1 1 1 1 9 10 5 4 5 3 3 5 11 18
53 52 50 47 47 43 44 44 43 44 42 41 36 30 19 12 -11 12 12 12 -2 22 16 22 19 19 22 15 17 22 22 11 17 23 17 21 12 15 21 16 18 -13 -20 -2 1 -1 6 16 17 16 13 18 2 -8 -18 -1 11 4 -6 -1 -7 -22 -17 -21 -9 -8 -10 -4 1 -6 -8 -9 -6 -9 -5 -3 -2 0 2 7 6 5 4 3 3 6 8 15
52 47 40 43 43 45 45 44 44 45 41 40 28 23 13 -4 -2 25 9 12 8 26 26 25 21 21 21 14 14 20 -4 13 18 19 18 12 16 10 13 16 20 11 7 7 -6 -8 -8 3 2 14 6 14 5 -9 -7 -10 8 4 9 -5 -1 -5 -19 -20 -17 -17 -5 -2 -3 1 -14 -3 -12 2 13 -2 -1 1 1 3 4 6 5 4 6 9 14 16
52 45 42 43 40 43 45 45 43 42 38 33 25 20 3 4 7 6 5 11 18 23 24 24 22 12 12 20 21 22 7 1 19 17 15 12 2 9 11 10 17 17 14 -4 7 -5 -5 -1 2 17 15 13 10 12 14 7 -3 9 6 -3 -6 -6 3 -15 -5 -10 -14 -11 -12 -10 -5 4 -3 -0 1 1 3 3 7 7 7 4 5 7 10 12 14 17
48 44 44 40 37 36 43 45 42 41 34 27 23 12 6 9 4 12 13 23 23 16 21 15 13 9 13 16 19 18 23 7 14 12 7 13 10 9 16 16 14 15 4 2 5 -9 -9 -17 12 17 16 11 9 13 12 1 -11 -10 -8 -8 2 5 -8 -14 1 1 -2 -9 -6 -5 -10 -13 -10 -13 -10 -7 -3 -1 4 5 5 6 4 7 12 14 15 17
42 41 34 37 35 39 42 41 43 40 32 26 21 10 16 18 17 20 33 26 23 23 13 -8 10 8 4 6 13 18 15 16 14 3 -2 13 3 15 12 13 20 18 7 5 -1 7 -10 -6 7 12 10 13 14 16 16 16 4 -5 -8 -6 8 6 2 -1 -14 -10 -14 -13 -10 -6 -3 -4 -10 -6 5 -6 -3 0 4 3 5 4 7 5 10 14 15 15
41 38 37 37 35 40 42 41 39 37 33 27 15 31 22 13 23 26 27 26 24 21 15 -3 4 8 4 2 5 10 16 -2 11 6 5 8 -4 16 15 11 17 14 14 18 -7 5 7 -4 -2 11 14 16 20 17 12 16 13 -9 0 4 -6 -7 -9 -0 -5 -16 -18 -15 -8 -3 -3 -0 -1 1 -5 -3 4 2 2 1 3 5 4 8 11 13 14 15
40 37 33 34 38 42 42 41 39 33 27 17 17 17 24 22 26 27 28 29 26 18 6 12 5 13 8 4 9 10 13 3 11 11 -4 2 -1 13 10 17 16 20 19 12 0 8 3 -8 -3 9 12 15 11 8 3 7 15 17 12 4 7 -2 -3 -11 -3 -5 -2 -6 -14 -2 -8 -4 1 1 1 0 3 3 3 2 8 7 11 13 15 13 14 14
37 34 30 35 42 43 43 42 35 29 23 15 17 17 23 19 24 28 27 26 22 18 14 12 16 9 11 15 12 5 15 8 6 8 2 7 3 17 11 14 7 19 18 18 2 12 5 -9 -9 2 10 9 3 7 3 6 8 7 4 4 -1 -3 3 4 -6 -1 -3 -10 -11 -8 -6 -1 3 1 4 3 4 5 8 9 8 12 14 14 12 13 13 15
36 32 31 38 43 42 41 34 26 21 19 22 25 23 25 20 29 28 31 31 30 27 22 20 19 10 12 6 8 15 7 13 12 9 7 8 4 -4 7 13 16 16 16 12 8 7 -5 -10 -1 3 -1 3 -1 8 6 5 5 7 7 6 4 2 -6 -7 -1 -2 -4 -7 -4 -11 -6 -1 0 3 4 2 5 8 7 7 10 13 12 11 10 11 11 13
29 23 27 38 43 40 33 23 21 23 20 18 18 24 23 35 27 28 29 28 27 24 25 21 22 19 20 15 13 11 8 9 13 10 13 5 14 1 6 17 16 17 10 7 13 15 10 -4 -6 -5 -9 -6 -3 2 11 6 7 8 4 4 5 6 6 -3 -8 2 -5 2 -3 -4 -11 -2 3 1 3 4 5 5 7 8 7 8 8 6 7 9 11 14
28 23 31 35 40 34 31 20 26 19 16 21 27 27 27 25 26 27 24 25 20 24 25 21 20 18 18 17 15 15 13 7 15 10 15 17 13 8 8 17 17 10 13 8 4 8 20 -6 -8 -5 -4 -2 3 8 8 11 12 6 6 5 4 5 7 3 1 6 3 -1 -2 -3 -7 0 1 6 2 3 5 7 4 3 4 3 1 1 5 6 7 10
29 28 22 34 40 37 27 16 17 18 21 24 27 26 28 23 27 27 25 25 20 23 21 23 19 20 16 20 16 13 17 4 13 12 8 16 13 22 21 17 13 9 7 14 12 19 -6 6 -7 -5 -0 -2 1 6 5 5 5 5 6 6 4 5 2 3 4 -0 -3 4 3 -1 -3 -1 0 2 4 8 8 6 7 8 3 4 6 7 7 8 11 14
25 27 29 33 35 30 20 25 23 19 22 21 25 23 22 23 27 27 26 24 27 23 20 18 20 21 20 21 18 19 21 7 3 16 9 12 17 21 17 17 18 7 13 22 23 7 -0 4 -0 -7 -4 -5 -6 -7 -4 1 7 3 3 3 6 8 6 1 2 1 -1 1 2 1 0 -0 3 5 7 7 8 7 8 8 9 9 8 8 10 11 12 13
21 8 22 25 29 25 27 26 26 23 19 20 14 19 22 20 23 28 25 25 27 26 21 21 22 19 19 18 17 17 17 18 11 10 7 8 10 14 22 21 20 16 26 30 22 4 3 9 -1 2 2 -1 1 1 4 10 1 2 5 1 4 7 10 8 6 2 1 3 1 4 4 2 2 4 5 8 8 8 9 9 9 8 9 10 11 12 14 14
23 11 21 16 23 25 22 24 23 18 16 21 11 20 14 20 22 19 27 24 24 26 25 24 24 17 16 18 18 17 19 17 18 15 14 13 13 13 20 23 24 24 30 22 21 12 5 3 7 2 4 3 1 1 2 6 -0 -1 1 3 3 4 8 9 7 4 9 7 2 5 4 7 4 8 10 11 11 10 10 9 10 9 11 11 11 11 17 13
7 14 26 27 12 15 16 21 23 22 24 17 17 21 18 18 19 12 21 25 23 22 23 20 22 22 19 17 17 8 13 17 16 10 12 13 15 17 17 23 23 29 26 17 15 12 9 5 9 9 9 9 5 2 2 3 3 2 3 4 5 5 6 9 10 9 6 5 3 2 3 7 6 11 11 11 11 10 10 10 11 11 11 12 14 14 15 15
25 27 26 28 10 18 19 21 27 23 24 22 22 21 16 19 14 19 17 20 22 21 22 14 18 22 23 21 17 13 17 7 10 11 10 10 12 13 13 13 20 23 21 16 12 12 10 8 9 7 7 5 4 4 4 4 4 5 8 6 6 6 8 9 8 8 8 10 7 7 6 6 11 12 12 13 13 13 12 14 14 12 13 16 16 17 17 18
23 19 20 25 25 22 21 24 25 21 17 24 17 22 18 19 15 20 22 19 14 17 22 18 18 19 22 22 20 15 17 15 13 13 12 12 14 13 14 17 16 23 18 18 12 17 13 9 15 7 4 9 9 10 9 8 7 8 8 8 8 8 8 9 10 9 11 10 10 10 10 11 14 15 15 15 15 15 16 17 14 14 17 18 19 19 20 19
31 30 29 20 14 19 20 22 22 21 17 18 16 20 21 21 19 21 19 23 20 17 21 19 20 19 22 22 22 20 20 19 19 18 18 18 17 21 15 18 18 17 17 15 12 12 10 11 7 7 6 8 7 7 8 8 8 9 8 7 8 8 10 11 11 14 12 12 12 11 11 14 16 17 18 17 18 18 18 18 16 18 19 20 20 20 21 21
31 33 31 22 11 24 16 20 19 12 10 20 20 20 17 17 20 20 17 22 24 23 23 23 23 20 20 22 21 22 23 23 23 24 24 24 23 22 21 19 19 19 17 18 13 12 12 9 7 7 6 9 7 9 8 8 9 10 8 8 9 9 9 13 17 18 18 15 13 11 13 17 18 19 19 19 20 19 19 19 18 20 20 20 20 22 22 22